sat.trackr.live / text

‹ back to catalog

STARLINK-33829

NORAD 63496 · 2025-071D

PAYLOAD ACTIVE UNKNOWN

§ Identity

Operator
Country
US
Launch date
2025-04-07
Launch site
AFWTR
Launch vehicle
Mass (kg)
RCS (m²)

Purposes: comms

External: N2YO · Heavens-Above · Gunter

§ Orbital elements

Epoch: 2026-09-20T09:12:49.501728Z

Period
94.01 min
Inclination
53.1597°
Eccentricity
0.0001300
Mean motion
15.31703075 rev/d
Perigee alt
469.8 km
Apogee alt
471.6 km
Semi-major
6,848.9 km
B*
9.6469e-5
RAAN
314.5147°
Arg perigee
82.4208°
Mean anomaly
277.6941°
Rev number
8,253

§ Raw data

STARLINK-338291 63496U 25071D   26263.38390627  .00002630  00000+0  96469-4 0  99982 63496  53.1597 314.5147 0001300  82.4208 277.6941 15.31703075 82539

JSON: /api/v1/satellites/63496 · /tle

For live sub-satellite position, see the globe view (requires WebGL).

§ Visibility from observer

Set your observer location to see the next 7 days of passes ≥ 10°. The values pass through the URL so the page stays shareable.

No JS? Fill the form by hand. The geolocation button needs JavaScript.